Regional Weather Roundup
Issued by NWS

Home | Current Version | Previous Version | Text Only | Print | Product List | Glossary On
Versions: 1 2 3 4 5 6 7 8 9 10 11 12 13 14 15 16 17 18 19 20 21 22 23 24 25 26 27
000
ASUS44 KLIX 310611
RWRLA
LOUISIANA WEATHER ROUNDUP
NATIONAL WEATHER SERVICE NEW ORLEANS LA
100 AM CDT TUE MAY 31 2016

NOTE: "FAIR" INDICATES FEW OR NO CLOUDS BELOW 12,000 FEET WITH NO
      SIGNIFICANT WEATHER AND/OR OBSTRUCTIONS TO VISIBILITY.
      SKY/WX - SKY CONDITION AND SIGNIFICANT WEATHER.
      TMP - AIR TEMPERATURE.    DP   - DEWPOINT TEMPERATURE.
      RH  - RELATIVE HUMIDITY.  PRES - PRESSURE.
      HX  - HEAT INDEX.         WCI  - WIND CHILL INDEX.

*  THESE STATIONS ARE NOT NWS OR FAA STATIONS AND ARE NOT UNDER
   NWS QUALITY CONTROL.

LAZ040-048-061>063-065-066-069-310700-
SOUTHEAST LOUISIANA

CITY           SKY/WX    TMP DP  RH WIND       PRES   REMARKS
N.O. AUDUBON   NOT AVBL
N.O. INTL ARPT PTCLDY    75  70  84 SW5       29.95F
6HR MIN TEMP:  75; 6HR MAX TEMP:  82;

N.O. LAKEFRONT CLEAR     79  70  74 SW8       29.95F
6HR MIN TEMP:  78; 6HR MAX TEMP:  84;

N.O. DOWNTOWN* FAIR      78  71  79 S3        29.95F
6HR MIN TEMP:  78; 6HR MAX TEMP:  83;

RESERVE*       FAIR      74  73  93 CALM      29.96F FOG
6HR MIN TEMP:  74; 6HR MAX TEMP:  85;

SLIDELL        PTCLDY    74  72  93 CALM      29.94F
6HR MIN TEMP:  73; 6HR MAX TEMP:  85;

BATON ROUGE    CLEAR     72  68  87 CALM      29.95F
6HR MIN TEMP:  71; 6HR MAX TEMP:  84;

BOOTHVILLE     CLEAR     77  70  79 W5        29.95F
6HR MIN TEMP:  76; 6HR MAX TEMP:  82;

BELLE CHASSE   CLEAR     71  69  93 CALM      29.94F
6HR MIN TEMP:  71; 6HR MAX TEMP:  81;

BOGALUSA*      FAIR      73  68  86 CALM      29.96F
6HR MIN TEMP:  72; 6HR MAX TEMP:  83;

GALLIANO*      CLEAR     68  66  94 CALM      29.95F
6HR MIN TEMP:  68; 6HR MAX TEMP:  84;

NEW ROADS*     FAIR      70  67  89 CALM      29.96F
6HR MIN TEMP:  70; 6HR MAX TEMP:  83;

GONZALES*      FAIR      73  72  99 SW3       29.94F
6HR MIN TEMP:  72; 6HR MAX TEMP:  82;

HAMMOND*       CLEAR     72  66  83 CALM      29.95S
HOUMA*         CLEAR     71  70  98 CALM      29.96F
6HR MIN TEMP:  71; 6HR MAX TEMP:  82;

PORT FOURCHON* CLEAR     81  70  69 SW5       29.95F

$$

LAZ041-044-053-054-310700-
SOUTHWEST LOUISIANA

CITY           SKY/WX    TMP DP  RH WIND       PRES   REMARKS
LAKE CHARLES   CLOUDY    72  71  97 CALM      29.95F
6HR MIN TEMP:  72; 6HR MAX TEMP:  82;

LAFAYETTE      CLEAR     75  71  87 CALM      29.96F
6HR MIN TEMP:  75; 6HR MAX TEMP:  84;

PATTERSON      CLEAR     72  71  97 CALM      29.96F
6HR MIN TEMP:  72; 6HR MAX TEMP:  81;

SALT POINT       N/A     78  73  84 CALM      29.94F
NEW IBERIA     PTCLDY    73  70  90 CALM      29.96F
6HR MIN TEMP:  73; 6HR MAX TEMP:  82;

CHENAULT AIRPK NOT AVBL

$$

LAZ027-028-310700-
CENTRAL LOUISIANA

CITY           SKY/WX    TMP DP  RH WIND       PRES   REMARKS
FORT POLK      NOT AVBL
ALEXANDRIA INT CLEAR     73  70  90 SE3       29.92F
6HR MIN TEMP:  73; 6HR MAX TEMP:  86; 6HR PCP: TRACE;

ALEXANDRIA     CLEAR     71  68  90 CALM      29.94F
6HR MIN TEMP:  71; 6HR MAX TEMP:  87;


$$

LAZ001-002-310700-
NORTHWEST LOUISIANA

CITY           SKY/WX    TMP DP  RH WIND       PRES   REMARKS
SHREVEPORT     PTCLDY    73  70  90 CALM      29.92S
6HR MIN TEMP:  73; 6HR MAX TEMP:  85;

BARKSDALE AFB  NOT AVBL
DTN SHREVEPORT CLEAR     74  69  85 SE3       29.92F
6HR MIN TEMP:  74; 6HR MAX TEMP:  85;


$$

LAZ014-016-310700-
NORTHEAST LOUISIANA

CITY           SKY/WX    TMP DP  RH WIND       PRES   REMARKS
MONROE         CLOUDY    72  71  97 CALM      29.95S
6HR MIN TEMP:  72; 6HR MAX TEMP:  79;

TALLULAH       CLEAR     72  68  87 CALM      29.94F
6HR MIN TEMP:  72; 6HR MAX TEMP:  83;


$$





USA.gov is the U.S. government's official web portal to all federal, state and local government web resources and services.